Location: Unspecified
(0.0000°N, 0.0000°E)
Time: 06:28:52
(UTC+00:00)

A-11 Canister half - Pass Details

Date: 20 November 2019
Orbit: 1515 x 1685 km, 47.2° (Epoch: 10 December)

Event Time Altitude Azimuth Distance (km) Brightness Sun altitude
Rises 15:21:37 0° 237° (WSW) 4,753 12.6 33.6°
Reaches altitude 10° 15:24:54 10° 244° (WSW) 3,791 12.6 32.8°
Maximum altitude 15:33:47 41° 311° (NW) 2,201 10.5 30.8°
Drops below altitude 10° 15:42:59 10° 18° (NNE) 3,901 10.9 28.7°
Sets 15:46:27 0° 25° (NNE) 4,903 11.2 27.9°
